Location: Boursonne
(49.2024°N, 3.0468°E)
Time: 03:38:10
(UTC+00:00)

SL-4 R/B - Pass Details

Date: 03 March 2021
Orbit: 428 x 663 km, 51.6° (Epoch: 16 April)

Event Time Altitude Azimuth Distance (km) Brightness Sun altitude
Rises 18:10:15 0° 279° (W) 2,524 7.5 -6.7°
Reaches altitude 10° 18:12:30 10° 284° (WNW) 1,613 5.9 -7.0°
Maximum altitude 18:16:03 57° 4° (N) 532 1.9 -7.6°
Enters shadow 18:19:18 11° 83° (E) 1,482 3.5 -8.1°
